Tracking 17856 objects as of 28-September-2016
HD Live streaming from Space Station
objects crossing your sky now

HYLAS 2

Track HYLAS 2 now!
HYLAS 2 is classified as:


NORAD ID: 38741
Int'l Code: 2012-043B
Perigee: 35,863.1 km
Apogee: 35,877.1 km
Inclination: 0.0 °
Period: 1,440.0 minutes
Semi major axis: 42241 km
RCS: 1.4658 m2 (large)
Launch date: August 2, 2012
Source: United Kingdom (UK)
Launch site: FRENCH GUIANA (FRGUI)

HYLAS 2, owned by Avanti Communications of London, carries 24 Ka-band transponders and is designed to provide broadband links to African customers. Hylas 2 is likely to be operated at 31 degrees east.
Your satellite tracking list
Your tracking list is empty





NASA's NSSDC Master Catalog

Two Line Element Set (TLE):
1 38741U 12043B   16271.89411858  .00000124  00000-0  00000+0 0  9990
2 38741   0.0171 119.2958 0001667  70.5738 170.1350  1.00272586 15261
Source of the keplerian elements: AFSPC

N2YO: 579